Radiation Dose at Monitoring Post of Fukushima Daini Nuclear Power Station
Date,Time,MP-1(microSv/h),MP-2(microSv/h),MP-3(microSv/h),MP-4(microSv/h),MP-5(microSv/h),MP-6(microSv/h),MP-7(microSv/h),Wind Direction,Wind Velocity(m/s),Rain
2022/04/11,00:00,0.158,0.144,0.230,0.221,0.224,0.124,0.080,southwest,4.8,No
2022/04/11,00:10,0.159,0.143,0.228,0.222,0.222,0.124,0.080,southwest,4.1,No
2022/04/11,00:20,0.157,0.144,0.229,0.221,0.225,0.125,0.080,southwest,4.6,No
2022/04/11,00:30,0.159,0.144,0.228,0.222,0.222,0.125,0.079,southwest,4.3,No
2022/04/11,00:40,0.157,0.142,0.229,0.221,0.224,0.125,0.079,southwest,5.2,No
2022/04/11,00:50,0.158,0.144,0.227,0.221,0.222,0.125,0.079,southwest,5.2,No
2022/04/11,01:00,0.159,0.143,0.228,0.223,0.224,0.125,0.080,southwest,5.4,No
2022/04/11,01:10,0.157,0.144,0.230,0.221,0.222,0.125,0.080,southwest,5.7,No
2022/04/11,01:20,0.158,0.145,0.228,0.222,0.225,0.126,0.079,southwest,5.9,No
2022/04/11,01:30,0.158,0.144,0.229,0.220,0.223,0.125,0.079,southwest,5.9,No
2022/04/11,01:40,0.159,0.143,0.229,0.221,0.224,0.125,0.080,south-southwest,4.6,No
2022/04/11,01:50,0.158,0.143,0.229,0.222,0.223,0.125,0.079,south-southwest,3.5,No
2022/04/11,02:00,0.159,0.144,0.228,0.221,0.224,0.125,0.080,south-southwest,3.7,No
2022/04/11,02:10,0.158,0.144,0.229,0.221,0.222,0.125,0.080,southwest,4.4,No
2022/04/11,02:20,0.158,0.144,0.229,0.221,0.223,0.125,0.080,southwest,4.0,No
2022/04/11,02:30,0.158,0.144,0.230,0.221,0.223,0.125,0.080,southwest,4.1,No
2022/04/11,02:40,0.158,0.144,0.228,0.222,0.223,0.125,0.080,southwest,3.2,No
2022/04/11,02:50,0.159,0.144,0.228,0.221,0.223,0.125,0.080,southwest,3.8,No
2022/04/11,03:00,0.158,0.144,0.228,0.222,0.223,0.125,0.079,southwest,3.8,No
2022/04/11,03:10,0.158,0.144,0.230,0.221,0.223,0.125,0.080,southwest,4.6,No
2022/04/11,03:20,0.159,0.144,0.229,0.222,0.222,0.125,0.080,southwest,4.1,No
2022/04/11,03:30,0.158,0.144,0.229,0.221,0.224,0.126,0.079,southwest,3.8,No
2022/04/11,03:40,0.158,0.143,0.230,0.221,0.222,0.125,0.080,southwest,4.1,No
2022/04/11,03:50,0.157,0.144,0.229,0.222,0.224,0.125,0.080,west-southwest,4.6,No
2022/04/11,04:00,0.158,0.144,0.230,0.220,0.222,0.127,0.080,southwest,5.2,No
2022/04/11,04:10,0.159,0.144,0.229,0.221,0.223,0.125,0.080,west-southwest,5.7,No
2022/04/11,04:20,0.158,0.144,0.229,0.221,0.222,0.125,0.080,west-southwest,5.2,No
2022/04/11,04:30,0.159,0.143,0.229,0.221,0.223,0.126,0.080,west-southwest,4.1,No
2022/04/11,04:40,0.158,0.145,0.230,0.222,0.222,0.126,0.081,southwest,3.5,No
2022/04/11,04:50,0.159,0.144,0.228,0.221,0.223,0.126,0.080,southwest,3.3,No
2022/04/11,05:00,0.159,0.144,0.229,0.222,0.222,0.125,0.080,southwest,3.5,No
2022/04/11,05:10,0.158,0.144,0.228,0.222,0.223,0.124,0.080,southwest,3.3,No
2022/04/11,05:20,0.158,0.143,0.229,0.222,0.223,0.125,0.080,south-southwest,4.0,No
2022/04/11,05:30,0.159,0.143,0.228,0.221,0.223,0.125,0.080,southwest,4.3,No
2022/04/11,05:40,0.158,0.144,0.231,0.222,0.225,0.125,0.080,south-southwest,4.0,No
2022/04/11,05:50,0.159,0.144,0.230,0.222,0.221,0.126,0.080,southwest,4.4,No
2022/04/11,06:00,0.159,0.145,0.228,0.222,0.224,0.125,0.079,southwest,5.5,No
2022/04/11,06:10,0.157,0.145,0.230,0.221,0.222,0.125,0.080,south-southwest,5.5,No
2022/04/11,06:20,0.158,0.144,0.229,0.223,0.224,0.126,0.079,south-southwest,4.1,No
2022/04/11,06:30,0.158,0.143,0.230,0.222,0.221,0.125,0.080,south-southwest,3.5,No
2022/04/11,06:40,0.157,0.145,0.229,0.222,0.225,0.124,0.080,south-southwest,2.9,No
2022/04/11,06:50,0.158,0.144,0.229,0.223,0.221,0.124,0.081,southwest,2.2,No
2022/04/11,07:00,0.158,0.145,0.229,0.221,0.225,0.124,0.079,west-southwest,0.5,No
2022/04/11,07:10,0.159,0.143,0.229,0.221,0.222,0.126,0.080,southwest,2.4,No
2022/04/11,07:20,0.158,0.144,0.230,0.220,0.224,0.125,0.079,south-southwest,3.3,No
2022/04/11,07:30,0.159,0.144,0.228,0.222,0.221,0.124,0.079,south-southwest,2.4,No
2022/04/11,07:40,0.159,0.143,0.230,0.220,0.223,0.125,0.079,south-southwest,2.1,No
2022/04/11,07:50,0.159,0.145,0.227,0.221,0.222,0.125,0.079,south-southwest,2.2,No
2022/04/11,08:00,0.158,0.143,0.226,0.221,0.222,0.125,0.080,south,2.2,No
2022/04/11,08:10,0.159,0.143,0.229,0.220,0.224,0.125,0.079,south-southwest,1.8,No
2022/04/11,08:20,0.158,0.144,0.228,0.219,0.222,0.124,0.079,south-southwest,1.6,No
2022/04/11,08:30,0.159,0.143,0.227,0.219,0.222,0.125,0.080,south-southwest,1.6,No
2022/04/11,08:40,0.158,0.143,0.227,0.222,0.225,0.125,0.080,south-southwest,2.4,No
2022/04/11,08:50,0.157,0.144,0.227,0.222,0.221,0.125,0.078,south,2.7,No
2022/04/11,09:00,0.156,0.143,0.225,0.220,0.220,0.125,0.079,south,2.7,No
2022/04/11,09:10,0.155,0.143,0.226,0.219,0.219,0.125,0.080,south-southeast,3.8,No
2022/04/11,09:20,0.157,0.143,0.227,0.218,0.223,0.124,0.080,south-southeast,4.4,No
2022/04/11,09:30,0.158,0.142,0.226,0.219,0.225,0.124,0.079,south-southeast,5.7,No
2022/04/11,09:40,0.157,0.143,0.227,0.219,0.223,0.125,0.079,south-southeast,7.5,No
2022/04/11,09:50,0.156,0.143,0.227,0.219,0.221,0.124,0.079,south-southeast,8.5,No
2022/04/11,10:00,0.156,0.143,0.227,0.218,0.222,0.124,0.080,south-southeast,8.3,No
2022/04/11,10:10,0.155,0.142,0.227,0.222,0.220,0.124,0.079,south,7.4,No
2022/04/11,10:20,0.157,0.142,0.226,0.223,0.222,0.124,0.079,south-southeast,7.7,No
2022/04/11,10:30,0.156,0.143,0.226,0.222,0.224,0.124,0.080,south-southeast,7.7,No
2022/04/11,10:40,0.157,0.144,0.227,0.220,0.224,0.123,0.079,south-southeast,7.8,No
2022/04/11,10:50,0.156,0.142,0.228,0.219,0.223,0.124,0.078,south-southeast,8.1,No
2022/04/11,11:00,0.156,0.143,0.227,0.219,0.222,0.124,0.079,south-southeast,8.6,No
2022/04/11,11:10,0.156,0.142,0.227,0.219,0.221,0.125,0.079,south-southeast,8.5,No
2022/04/11,11:20,0.155,0.142,0.227,0.221,0.220,0.125,0.079,south-southeast,8.6,No
2022/04/11,11:30,0.156,0.144,0.228,0.222,0.220,0.125,0.079,south-southeast,9.6,No
2022/04/11,11:40,0.155,0.144,0.228,0.222,0.221,0.124,0.079,south-southeast,9.7,No
2022/04/11,11:50,0.158,0.143,0.229,0.220,0.221,0.126,0.079,south-southeast,9.2,No
2022/04/11,12:00,0.158,0.142,0.229,0.219,0.222,0.124,0.079,south-southeast,9.4,No
2022/04/11,12:10,0.158,0.144,0.232,0.222,0.224,0.124,0.079,south-southeast,9.6,No
2022/04/11,12:20,0.157,0.144,0.231,0.223,0.224,0.125,0.079,south-southeast,9.9,No
2022/04/11,12:30,0.155,0.144,0.229,0.221,0.222,0.125,0.079,south-southeast,10.6,No
2022/04/11,12:40,0.155,0.143,0.229,0.221,0.221,0.124,0.080,south-southeast,10.4,No
2022/04/11,12:50,0.158,0.142,0.228,0.220,0.220,0.125,0.079,south-southeast,9.8,No
2022/04/11,13:00,0.158,0.144,0.226,0.220,0.220,0.124,0.079,south-southeast,9.2,No
2022/04/11,13:10,0.157,0.144,0.227,0.223,0.224,0.123,0.079,south-southeast,10.7,No
2022/04/11,13:20,0.156,0.143,0.229,0.222,0.225,0.123,0.078,south-southeast,9.1,No
2022/04/11,13:30,0.157,0.145,0.231,0.220,0.223,0.125,0.078,south-southeast,9.8,No
2022/04/11,13:40,0.159,0.144,0.229,0.222,0.220,0.125,0.080,south-southeast,10.6,No
2022/04/11,13:50,0.158,0.143,0.228,0.223,0.224,0.124,0.079,south-southeast,11.2,No
2022/04/11,14:00,0.156,0.143,0.229,0.222,0.223,0.124,0.080,south-southeast,11.2,No
2022/04/11,14:10,0.158,0.143,0.229,0.220,0.222,0.123,0.079,south-southeast,10.4,No
2022/04/11,14:20,0.159,0.142,0.228,0.223,0.223,0.124,0.079,south-southeast,10.4,No
2022/04/11,14:30,0.157,0.144,0.229,0.221,0.225,0.125,0.079,south-southeast,9.5,No
2022/04/11,14:40,0.160,0.142,0.232,0.222,0.223,0.124,0.079,south-southeast,10.2,No
2022/04/11,14:50,0.158,0.143,0.230,0.223,0.222,0.124,0.080,south,10.9,No
2022/04/11,15:00,0.156,0.143,0.228,0.220,0.225,0.124,0.079,south-southeast,10.0,No
2022/04/11,15:10,0.158,0.143,0.230,0.222,0.221,0.124,0.079,south,10.1,No
2022/04/11,15:20,0.157,0.143,0.229,0.222,0.223,0.125,0.079,south,7.7,No
2022/04/11,15:30,0.157,0.144,0.228,0.219,0.224,0.125,0.079,south,7.8,No
2022/04/11,15:40,0.157,0.143,0.231,0.222,0.222,0.124,0.080,south,7.7,No
2022/04/11,15:50,0.158,0.143,0.229,0.222,0.220,0.125,0.078,south,8.4,No
2022/04/11,16:00,0.157,0.142,0.227,0.219,0.224,0.125,0.079,south,8.4,No
2022/04/11,16:10,0.158,0.145,0.231,0.224,0.224,0.124,0.079,south,7.8,No
2022/04/11,16:20,0.158,0.143,0.228,0.220,0.222,0.124,0.078,south,8.4,No
2022/04/11,16:30,0.157,0.142,0.229,0.221,0.220,0.124,0.079,south,9.0,No
2022/04/11,16:40,0.158,0.144,0.229,0.221,0.223,0.124,0.078,south,9.2,No
2022/04/11,16:50,0.158,0.142,0.227,0.221,0.222,0.125,0.079,south,8.0,No
2022/04/11,17:00,0.158,0.144,0.230,0.223,0.221,0.124,0.078,south,7.2,No
2022/04/11,17:10,0.159,0.142,0.230,0.222,0.222,0.125,0.080,south,8.1,No
2022/04/11,17:20,0.158,0.143,0.229,0.222,0.222,0.125,0.078,south,7.9,No
2022/04/11,17:30,0.157,0.144,0.229,0.222,0.221,0.124,0.078,south,7.9,No
2022/04/11,17:40,0.158,0.143,0.229,0.220,0.224,0.126,0.079,south,8.8,No
2022/04/11,17:50,0.157,0.143,0.230,0.221,0.223,0.123,0.079,south,7.9,No
2022/04/11,18:00,0.158,0.143,0.229,0.221,0.224,0.125,0.079,south,9.7,No
2022/04/11,18:10,0.157,0.144,0.230,0.220,0.223,0.124,0.079,south,9.2,No
2022/04/11,18:20,0.159,0.143,0.228,0.221,0.223,0.124,0.079,south,9.7,No
2022/04/11,18:30,0.157,0.143,0.230,0.221,0.224,0.124,0.079,south,8.6,No
2022/04/11,18:40,0.158,0.143,0.229,0.222,0.223,0.125,0.079,south,8.9,No
2022/04/11,18:50,0.157,0.144,0.230,0.222,0.224,0.124,0.079,south,9.6,No
2022/04/11,19:00,0.158,0.143,0.230,0.222,0.222,0.124,0.079,south,9.2,No
2022/04/11,19:10,0.157,0.144,0.230,0.222,0.224,0.125,0.079,south,9.4,No
2022/04/11,19:20,0.158,0.143,0.229,0.223,0.222,0.124,0.079,south,9.6,No
2022/04/11,19:30,0.158,0.144,0.229,0.222,0.223,0.125,0.078,south,9.0,No
2022/04/11,19:40,0.158,0.144,0.231,0.222,0.223,0.124,0.080,south,9.4,No
2022/04/11,19:50,0.158,0.143,0.228,0.222,0.223,0.124,0.079,south,9.8,No
2022/04/11,20:00,0.159,0.144,0.230,0.222,0.222,0.124,0.078,south,10.0,No
2022/04/11,20:10,0.157,0.144,0.229,0.221,0.223,0.125,0.079,south,9.0,No
2022/04/11,20:20,0.158,0.144,0.230,0.222,0.222,0.124,0.079,south,8.4,No
2022/04/11,20:30,0.158,0.144,0.229,0.221,0.224,0.124,0.079,south,9.2,No
2022/04/11,20:40,0.159,0.144,0.231,0.222,0.224,0.124,0.079,south,7.8,No
2022/04/11,20:50,0.158,0.143,0.230,0.222,0.223,0.125,0.079,south,7.2,No
2022/04/11,21:00,0.158,0.143,0.230,0.221,0.223,0.124,0.079,south,6.6,No
2022/04/11,21:10,0.158,0.143,0.229,0.221,0.223,0.125,0.079,south,6.9,No
2022/04/11,21:20,0.158,0.143,0.230,0.222,0.221,0.124,0.079,south,6.0,No
2022/04/11,21:30,0.158,0.144,0.229,0.222,0.223,0.125,0.078,south,5.5,No
2022/04/11,21:40,0.159,0.143,0.230,0.221,0.224,0.124,0.079,south,5.4,No
2022/04/11,21:50,0.158,0.144,0.230,0.222,0.222,0.125,0.080,south,6.1,No
2022/04/11,22:00,0.157,0.144,0.228,0.222,0.223,0.124,0.079,south,6.0,No
2022/04/11,22:10,0.157,0.143,0.230,0.223,0.222,0.124,0.079,south,6.1,No
2022/04/11,22:20,0.159,0.144,0.229,0.222,0.224,0.124,0.079,south,6.6,No
2022/04/11,22:30,0.157,0.143,0.230,0.223,0.221,0.125,0.079,south,6.0,No
2022/04/11,22:40,0.158,0.144,0.229,0.222,0.225,0.124,0.079,south-southwest,5.9,No
2022/04/11,22:50,0.159,0.143,0.229,0.222,0.222,0.125,0.079,south-southwest,5.1,No
2022/04/11,23:00,0.157,0.142,0.229,0.222,0.224,0.125,0.079,south-southwest,4.7,No
2022/04/11,23:10,0.159,0.143,0.230,0.222,0.223,0.125,0.079,south-southwest,5.0,No
2022/04/11,23:20,0.157,0.143,0.230,0.221,0.224,0.124,0.080,south-southwest,4.3,No
2022/04/11,23:30,0.159,0.144,0.228,0.222,0.221,0.125,0.080,south-southwest,4.1,No
2022/04/11,23:40,0.158,0.143,0.230,0.222,0.224,0.125,0.080,southwest,4.1,No
2022/04/11,23:50,0.159,0.144,0.229,0.222,0.221,0.125,0.080,southwest,5.1,No
